Tracking 19252 objects as of 17-Oct-2018
HD Live streaming from Space Station
objects crossing your sky now

METEOR 1-25

Track METEOR 1-25 now!
10-day predictions
METEOR 1-25 is classified as:


NORAD ID: 8845
Int'l Code: 1976-043A
Perigee: 833.0 km
Apogee: 890.0 km
Inclination: 81.3 °
Period: 102.0 minutes
Semi major axis: 7232 km
RCS: 4.2593 m2 (large)
Launch date: May 15, 1976
Source: Commonwealth of Independent States (former USSR) (CIS)
Launch site: PLESETSK MISSILE AND SPACE COMPLEX (PKMTR)
aabbcc
Your satellite tracking list
Your tracking list is empty




NASA's NSSDC Master Catalog

Two Line Element Set (TLE):
1  8845U 76043A   18290.15504600 -.00000060  00000-0 -39779-4 0  9993
2  8845  81.2621 162.6299 0039341 322.1059  37.7344 14.11466034330198
Source of the keplerian elements: AFSPC